Regional Weather Roundup
Issued by NWS Kansas City/Pleasant Hill, MO

Home | Current Version | Previous Version | Graphics & Text | Print | Product List | Glossary Off
Versions: 1 2 3 4 5 6 7 8 9 10 11 12 13 14 15 16 17 18 19 20 21 22 23 24 25 26 27 28 29 30 31 32 33 34 35 36 37 38 39 40 41 42 43 44 45 46 47 48 49 50

243
ASUS43 KEAX 121910
RWREAX

WEATHER ROUNDUP FOR EASTERN KANSAS AND NORTHWEST MISSOURI
NATIONAL WEATHER SERVICE KANSAS CITY/PLEASANT HILL MO
100 PM CST FRI FEB 12 2016

KSZ040-057-103>105-MOZ028-029-037-043-122000-
...KANSAS CITY METROPOLITAN AREA...

CITY           SKY/WX    TMP DP  RH WIND       PRES   REMARKS
K.C. INTL      MOSUNNY   34  16  47 N14G22    30.43S WCI  25
K.C. DOWNTOWN  SUNNY     38  17  42 N14G21    30.43S WCI  30
LEES SUMMIT    MOSUNNY   37  21  52 NW17      30.41S WCI  27
OLATHE - IXD   MOSUNNY   38  23  55 N20       30.42F WCI  28
OLATHE - OJC   MOSUNNY   38  21  50 NW14G23   30.41F WCI  30
LAWRENCE       PTSUNNY   36  21  54 N18G28    30.45S WCI  26

$$

MOZ001>008-011>017-020>025-030>033-038>040-044>046-053-054-122000-
...NORTHERN AND CENTRAL MISSOURI...

CITY           SKY/WX    TMP DP  RH WIND       PRES   REMARKS
ST. JOSEPH     SUNNY     32  14  47 N17       30.48R WCI  21
MOSBY          PTCLDY    32  19  59 NW10      30.44S WCI  24
WARRENSBURG    SUNNY     36  21  55 NW12      30.40F WCI  27
WHITEMAN AFB   MOSUNNY   37  22  54 N17       30.38F WCI  27
CLINTON          N/A     41  27  56 NW15      30.40F WCI  33
SEDALIA        MOSUNNY   37  21  52 NW15G26   30.39F WCI  28
WARSAW         NOT AVBL
CHILLICOTHE      N/A     33  15  47 NW14G22   30.42F WCI  23
KIRKSVILLE     MOSUNNY   28  14  55 NW13G21   30.39S WCI  17

$$

MOZ041-047>049-056>058-063>065-088>090-097-122000-
...EASTERN AND SOUTHERN MISSOURI...

CITY           SKY/WX    TMP DP  RH WIND       PRES   REMARKS
ST. LOUIS INTL CLOUDY    32  23  69 NW13      30.31R WCI  22
SPIRIT OF STL  CLOUDY    34  23  64 NW16G24   30.32R WCI  24
COLUMBIA       MOSUNNY   33  22  63 NW18G29   30.36S WCI  22
JEFFERSON CITY MOSUNNY   36  22  56 NW18G24   30.38R WCI  26
ROLLA          LGT RAIN  37  23  56 NW15      30.30R WCI  28
OSAGE BEACH    MOSUNNY   39  19  45 NW8G21    30.35S WCI  34
SPRINGFIELD    SUNNY     43  22  43 N14G28    30.32F
BRANSON        MOSUNNY   46  25  42 NW16G22   30.31S
JOPLIN         SUNNY     43  25  49 N18       30.38F WCI  35
WEST PLAINS    SUNNY     47  23  38 N10G21    30.27F

$$

IAZ060-094-KSZ022-034>040-054-083-096-NEZ052-066-093-122000-
...KANSAS...SOUTHEAST NEBRASKA AND IOWA...

CITY           SKY/WX    TMP DP  RH WIND       PRES   REMARKS
TOPEKA         CLOUDY    37  21  52 N18G25    30.46S WCI  27
MANHATTAN      CLOUDY    36  24  62 N9        30.48S WCI  29
EMPORIA        SUNNY     40  24  53 N16G23    30.44S WCI  31
CHANUTE        SUNNY     43  26  51 NE15      30.41F
WICHITA        CLOUDY    40  26  57 N14       30.44S WCI  32
OMAHA          MOSUNNY   25  13  60 N20       30.52R WCI  11
LINCOLN        CLOUDY    27  16  63 N20       30.53R WCI  13
FALLS CITY     SUNNY     32  16  51 N13G18    30.48F WCI  22
LAMONI         SUNNY     25   9  50 N17G24    30.43R WCI  12
DES MOINES     MOSUNNY   20   7  57 NW20      30.46R WCI   4

$$





USA.gov is the U.S. government's official web portal to all federal, state and local government web resources and services.